Location: Spring Creek
(38.2870°N, 100.2160°W)
Time: 16:31:39
(UTC+00:00)

DELTA 2 R/B (1) - Visible Passes

Search period start: 25 September 2021 00:00
Search period end: 05 October 2021 00:00
Orbit: 789 x 803 km, 39.6° (Epoch: 24 September)

Date Brightness Start Highest point End Pass type
(mag) Time Alt. Az. Time Alt. Az. Time Alt. Az.
30 Sep 5.5 11:53:00 10° SSW 11:57:28 26° SE 12:01:58 10° E visible
01 Oct 5.5 11:22:16 10° SSW 11:26:35 23° SE 11:30:54 10° E visible
02 Oct 5.5 10:51:58 12° S 10:55:41 22° SE 10:59:48 10° E visible
03 Oct 5.5 10:23:07 17° SSE 10:24:47 20° SE 10:28:41 10° E visible
03 Oct 4.0 12:05:09 10° WSW 12:10:35 61° SSE 12:16:04 10° E visible
04 Oct 5.6 09:54:12 18° SE 09:54:12 18° SE 09:57:32 10° E visible
04 Oct 4.0 11:34:58 14° SW 11:39:40 57° SSE 11:45:06 10° E visible
